CSCL Long Beach — VRCZ7 — position and weather

sailwx.info

Track history (hours):
 
Tides and Currents Weather Stations Pressure Air Temp Water Temp Dewpoint Dewpoint Depression Visibility Wind Speed Wind Dir Waves Ship Positions

CSCL Long Beach

Last reported at 2014-Aug-28 00:33 UTC. Time now 2014-Aug-28 01:16 UTC.
Position N 29°52' E 122°50'.

Length 336.7 m; beam 45.6 m; draft 15 m.

Type: Cargo ship. MMSI: 477883900.

Date/timePositionNaut miles runAvg speedWind from/ knotsBaromVisibWave heightAir tempDewpointWater temp
2014-Aug-28 00:33N 29°52' E 122°50'1712.8
2014-Aug-27 23:16N 30°05' E 123°02'1013.0
2014-Aug-27 22:31N 30°14' E 123°02'1313.4
2014-Aug-27 21:33N 30°23' E 122°52'1514.5
2014-Aug-27 20:33N 30°29' E 122°36'1716.7
2014-Aug-27 19:33N 30°33' E 122°18'11 0.4
2014-Aug-26 17:16N 30°36' E 122°05'6 8.9
2014-Aug-26 16:32N 30°34' E 122°12'9 9.1
2014-Aug-26 15:33N 30°33' E 122°23'8 7.9
2014-Aug-26 14:33N 30°31' E 122°32'1312.6
2014-Aug-26 13:33N 30°28' E 122°46'2 1.1
2014-Aug-26 11:32N 30°26' E 122°46'0 0.1
2014-Aug-26 09:32N 30°25' E 122°46'0 0.1
2014-Aug-26 08:32N 30°25' E 122°47'0 0.0
2014-Aug-26 07:32N 30°25' E 122°47'0 0.1
2014-Aug-26 06:32N 30°25' E 122°47'0 0.1
2014-Aug-26 05:32N 30°25' E 122°47'0 0.2
2014-Aug-26 04:26N 30°26' E 122°46'0 0.1
2014-Aug-26 03:32N 30°26' E 122°46'1 1.0
2014-Aug-26 02:33N 30°26' E 122°47'1111.0
2014-Aug-26 01:34N 30°32' E 122°58'2019.0
2014-Aug-26 00:31N 30°46' E 123°15'1814.0
2014-Aug-25 23:13N 31°03' E 123°10'32111.5
2014-Aug-24 19:26N 35°60' E 120°44'1011.3
2014-Aug-24 18:33N 35°59' E 120°32'1211.7
2014-Aug-24 17:33N 36°02' E 120°18'5 1.4
2014-Aug-24 14:21N 35°60' E 120°13'0 0.0
2014-Aug-24 13:27N 35°60' E 120°13'0 0.0
2014-Aug-24 11:09N 35°60' E 120°13'0 0.0
2014-Aug-24 01:33N 35°60' E 120°13'  
2014-Aug-21 18:33N 29°56' E 123°34'1711.8
2014-Aug-21 17:06N 29°42' E 123°23'911.8
2014-Aug-21 16:23N 29°35' E 123°19'1512.0
2014-Aug-21 15:08N 29°21' E 123°13'1211.0
2014-Aug-21 14:04N 29°09' E 123°09'31513.2
2014-Aug-20 14:06N 24°52' E 119°45'3713.0
2014-Aug-20 11:16N 24°30' E 119°12'4213.9
2014-Aug-20 08:15N 24°03' E 118°37'1013.8
2014-Aug-20 07:33N 23°56' E 118°30'1313.2
2014-Aug-20 06:34N 23°48' E 118°19'1313.2
2014-Aug-20 05:33N 23°39' E 118°08'1312.7
2014-Aug-20 04:33N 23°31' E 117°57'1312.4
2014-Aug-20 03:29N 23°21' E 117°47'1211.6
2014-Aug-20 02:27N 23°16' E 117°35'3612.6
2014-Aug-19 23:33N 22°52' E 117°06'1513.4
2014-Aug-19 22:28N 22°41' E 116°55'17612.3
2014-Aug-19 08:11N 21°55' E 113°52'2012.4
2014-Aug-19 06:33N 22°15' E 113°48'8 7.7
2014-Aug-19 05:33N 22°22' E 113°47'1312.8
2014-Aug-19 04:32N 22°35' E 113°43'4 0.3
2014-Aug-18 15:33N 22°38' E 113°41'6 5.6
2014-Aug-18 14:34N 22°33' E 113°43'1413.8
2014-Aug-18 13:33N 22°20' E 113°48'1110.7
2014-Aug-18 12:33N 22°10' E 113°51'1010.3
2014-Aug-18 11:33N 21°60' E 113°53'6 0.9
2014-Aug-18 05:30N 21°56' E 113°58'8 8.7
2014-Aug-18 04:32N 21°49' E 113°54'  
Track history (hours):
 
Tides and Currents Weather Stations Pressure Air Temp Water Temp Dewpoint Dewpoint Depression Visibility Wind Speed Wind Dir Waves Ship Positions

CSCL Long Beach

Last reported at 2014-Aug-28 00:33 UTC. Time now 2014-Aug-28 01:16 UTC.
Position N 29°52' E 122°50'.

Length 336.7 m; beam 45.6 m; draft 15 m.

Type: Cargo ship. MMSI: 477883900.

Date/timePositionNaut miles runAvg speedWind from/ knotsBaromVisibWave heightAir tempDewpointWater temp
2014-Aug-28 00:33N 29°52' E 122°50'1712.8
2014-Aug-27 23:16N 30°05' E 123°02'1013.0
2014-Aug-27 22:31N 30°14' E 123°02'1313.4
2014-Aug-27 21:33N 30°23' E 122°52'1514.5
2014-Aug-27 20:33N 30°29' E 122°36'1716.7
2014-Aug-27 19:33N 30°33' E 122°18'11 0.4
2014-Aug-26 17:16N 30°36' E 122°05'6 8.9
2014-Aug-26 16:32N 30°34' E 122°12'9 9.1
2014-Aug-26 15:33N 30°33' E 122°23'8 7.9
2014-Aug-26 14:33N 30°31' E 122°32'1312.6
2014-Aug-26 13:33N 30°28' E 122°46'2 1.1
2014-Aug-26 11:32N 30°26' E 122°46'0 0.1
2014-Aug-26 09:32N 30°25' E 122°46'0 0.1
2014-Aug-26 08:32N 30°25' E 122°47'0 0.0
2014-Aug-26 07:32N 30°25' E 122°47'0 0.1
2014-Aug-26 06:32N 30°25' E 122°47'0 0.1
2014-Aug-26 05:32N 30°25' E 122°47'0 0.2
2014-Aug-26 04:26N 30°26' E 122°46'0 0.1
2014-Aug-26 03:32N 30°26' E 122°46'1 1.0
2014-Aug-26 02:33N 30°26' E 122°47'1111.0
2014-Aug-26 01:34N 30°32' E 122°58'2019.0
2014-Aug-26 00:31N 30°46' E 123°15'1814.0
2014-Aug-25 23:13N 31°03' E 123°10'32111.5
2014-Aug-24 19:26N 35°60' E 120°44'1011.3
2014-Aug-24 18:33N 35°59' E 120°32'1211.7
2014-Aug-24 17:33N 36°02' E 120°18'5 1.4
2014-Aug-24 14:21N 35°60' E 120°13'0 0.0
2014-Aug-24 13:27N 35°60' E 120°13'0 0.0
2014-Aug-24 11:09N 35°60' E 120°13'0 0.0
2014-Aug-24 01:33N 35°60' E 120°13'  
2014-Aug-21 18:33N 29°56' E 123°34'1711.8
2014-Aug-21 17:06N 29°42' E 123°23'911.8
2014-Aug-21 16:23N 29°35' E 123°19'1512.0
2014-Aug-21 15:08N 29°21' E 123°13'1211.0
2014-Aug-21 14:04N 29°09' E 123°09'31513.2
2014-Aug-20 14:06N 24°52' E 119°45'3713.0
2014-Aug-20 11:16N 24°30' E 119°12'4213.9
2014-Aug-20 08:15N 24°03' E 118°37'1013.8
2014-Aug-20 07:33N 23°56' E 118°30'1313.2
2014-Aug-20 06:34N 23°48' E 118°19'1313.2
2014-Aug-20 05:33N 23°39' E 118°08'1312.7
2014-Aug-20 04:33N 23°31' E 117°57'1312.4
2014-Aug-20 03:29N 23°21' E 117°47'1211.6
2014-Aug-20 02:27N 23°16' E 117°35'3612.6
2014-Aug-19 23:33N 22°52' E 117°06'1513.4
2014-Aug-19 22:28N 22°41' E 116°55'17612.3
2014-Aug-19 08:11N 21°55' E 113°52'2012.4
2014-Aug-19 06:33N 22°15' E 113°48'8 7.7
2014-Aug-19 05:33N 22°22' E 113°47'1312.8
2014-Aug-19 04:32N 22°35' E 113°43'4 0.3
2014-Aug-18 15:33N 22°38' E 113°41'6 5.6
2014-Aug-18 14:34N 22°33' E 113°43'1413.8
2014-Aug-18 13:33N 22°20' E 113°48'1110.7
2014-Aug-18 12:33N 22°10' E 113°51'1010.3
2014-Aug-18 11:33N 21°60' E 113°53'6 0.9
2014-Aug-18 05:30N 21°56' E 113°58'8 8.7
2014-Aug-18 04:32N 21°49' E 113°54'  

Dump ship's entire track history